Nashua, NH

11:56 PM EDT on July 23, 2017 (GMT -0400)
Boire

Weather History for KASH - May, 2013

Change the Weather History Date:

Sunday, May 12, 2013

  Actual Average Record
Temperature  
Mean Temperature 60 °F -  
Max Temperature 70 °F 67 °F 89 °F (2001)
Min Temperature 50 °F 42 °F 28 °F (1962)
Degree Days  
Heating Degree Days 5    
Growing Degree Days 10 (Base 50)    
Moisture  
Dew Point 48 °F    
Average Humidity 68    
Maximum Humidity 100    
Minimum Humidity 31    
Precipitation  
Precipitation 0.01 in - - ()
Sea Level Pressure  
Sea Level Pressure 30.26 in    
Wind  
Wind Speed 3 mph (NW)    
Max Wind Speed 28 mph    
Max Gust Speed 34 mph    
Visibility 9 miles    
Events Rain    
Averages and records for this station are not official NWS values.
T = Trace of Precipitation, MM = Missing Value Source: NWS Daily Summary

Daily Weather History Graph

Daily Weather History Graph

Search for Another Location

Airport or City:

Trip Planner

Search our weather history database for the weather conditions in past years. The results will help you decide how hot, cold, wet, or windy it might be!

Date:

Astronomy

May. 12, 2013 Rise Set
Actual Time 5:26 AM EDT 7:59 PM EDT
Civil Twilight 4:54 AM EDT 8:31 PM EDT
Nautical Twilight 4:14 AM EDT 9:11 PM EDT
Astronomical Twilight 3:28 AM EDT 9:57 PM EDT
Moon 7:18 AM EDT (5/12) 10:24 PM EDT (5/12)
Length of Visible Light 15h 36m
Length of Day
14h 32m
Waxing Crescent, 6% of the Moon is Illuminated
May 12
Waxing Crescent
May 18
First Quarter
May 25
Full
May 31
Last Quarter
Jun 8
New

Hourly Weather History & Observations

Time (EDT) Temp. Dew Point Humidity Pressure Visibility Wind Dir Wind Speed Gust Speed Precip Events Conditions
12:31 AM 62.6 °F 60.8 °F 94% 29.69 in 6.0 mi Calm Calm - N/A   Overcast
12:51 AM 61.9 °F 59.9 °F 93% 30.40 in 5.0 mi Calm Calm - N/A   Mostly Cloudy
1:51 AM 61.9 °F 59.9 °F 93% 30.39 in 9.0 mi Calm Calm - N/A   Overcast
2:26 AM 62.6 °F 60.8 °F 94% 29.65 in 6.0 mi Calm Calm - N/A   Scattered Clouds
2:38 AM 60.8 °F 60.8 °F 100% 29.66 in 4.0 mi Calm Calm - N/A   Mostly Cloudy
2:51 AM 61.0 °F 59.9 °F 96% 30.38 in 5.0 mi Calm Calm - N/A   Mostly Cloudy
3:51 AM 61.0 °F 59.9 °F 96% 30.35 in 7.0 mi Calm Calm - N/A   Mostly Cloudy
4:51 AM 59.9 °F 59.0 °F 97% 30.36 in 6.0 mi Calm Calm - N/A   Mostly Cloudy
5:30 AM 60.8 °F 59.0 °F 94% 29.64 in 10.0 mi Calm Calm - 0.00 in   Overcast
5:51 AM 61.0 °F 59.0 °F 93% 30.36 in 8.0 mi Calm Calm - 0.00 in   Overcast
6:51 AM 61.0 °F 57.9 °F 90% 30.37 in 10.0 mi NNW 5.8 mph - N/A   Overcast
6:58 AM 60.8 °F 57.2 °F 88% 29.64 in 10.0 mi Calm Calm - N/A   Mostly Cloudy
7:51 AM 59.9 °F 54.9 °F 83% 30.37 in 4.0 mi Calm Calm - 0.01 in Rain Rain
8:51 AM 59.9 °F 54.9 °F 83% 30.36 in 10.0 mi Calm Calm - 0.00 in   Mostly Cloudy
9:51 AM 59.9 °F 50.9 °F 72% 30.36 in 10.0 mi NNW 10.4 mph - 0.00 in   Mostly Cloudy
10:51 AM 61.0 °F 52.0 °F 72% 30.35 in 10.0 mi NNW 8.1 mph - 0.00 in   Overcast
11:51 AM 63.9 °F 47.8 °F 56% 30.33 in 10.0 mi NW 8.1 mph - N/A   Overcast
12:51 PM 66.9 °F 47.8 °F 50% 30.32 in 10.0 mi Variable 6.9 mph - N/A   Mostly Cloudy
1:51 PM 68.0 °F 47.8 °F 48% 30.31 in 10.0 mi NNW 3.5 mph - N/A   Mostly Cloudy
2:51 PM 70.0 °F 45.9 °F 42% 30.30 in 10.0 mi West 10.4 mph - N/A   Mostly Cloudy
3:51 PM 68.9 °F 43.0 °F 39% 30.30 in 10.0 mi NNW 12.7 mph 21.9 mph N/A   Mostly Cloudy
4:51 PM 66.9 °F 41.9 °F 40% 30.33 in 10.0 mi NW 27.6 mph 34.5 mph N/A   Scattered Clouds
5:51 PM 61.0 °F 34.9 °F 38% 30.38 in 10.0 mi NW 15.0 mph 20.7 mph N/A   Mostly Cloudy
6:51 PM 59.9 °F 32.0 °F 35% 30.40 in 10.0 mi NW 11.5 mph 19.6 mph N/A   Clear
7:51 PM 56.8 °F 26.1 °F 31% 30.45 in 10.0 mi WNW 9.2 mph - N/A   Clear
8:51 PM 54.0 °F 25.2 °F 33% 30.47 in 10.0 mi Calm Calm - N/A   Clear
9:51 PM 52.0 °F 26.1 °F 37% 30.49 in 10.0 mi West 6.9 mph - N/A   Clear
10:51 PM 50.9 °F 28.0 °F 41% 30.51 in 10.0 mi West 5.8 mph - N/A   Clear
11:51 PM 50.9 °F 26.1 °F 38% 30.53 in 10.0 mi WNW 8.1 mph - N/A   Clear